Content
SEND FEEDBACK

Daily
Averages
Monthly
Summary
United States of America

STERLING, COLORADO


Home > North America > United States > Colorado
Elevation: 4037 feet     Latitude: 40 36N     Longitude: 103 15W

WEATHER
 
SELECT A DAY
Number of Records: 221,977;   Date Range: 1/1/95 - 9/29/14
 
SHARE

PRINT THIS DATA

[ ← Previous Day ]
WEATHER ALMANAC - JANUARY 20, 2014
[ Next Day → ]
[ °C ]   °F
Weather ElementAverageHighLow
Temperature32.6 °F44.6 °F (11:10 am)17.6 °F (11:50 pm)
Dewpoint14.5 °F19.4 °F (9:30 am)12.2 °F (12:30 am)
Humidity50.1 %79 % (11:50 pm)29 % (12:30 pm)
Barometer30.22 in30.36 in (8:10 pm)29.97 in (12:30 am)
Wind Speed14.9 mph29.9 mph (11:30 am)
Wind Gust40.3 mph (12:10 pm)
Weather ElementAverage
Visibility10 mi
Wind DirectionWNW (304.4 °)

Weather ElementTotal
Precipitation---
Heating Degree Days33.9 (Base 65)
Averaged from 71 records on January 20, 2014
WEATHER CONDITIONS BREAKOUT
WIND DIRECTION BREAKOUT
WEATHER BY HOUR - JANUARY 20, 2014
[ °C ]   °F
Local TimeTemperatureDewpointHumidityBarometerVisibilityWind DirectionWind SpeedGust SpeedPrecipitationEventsConditions
12:30 AM24.8 °F12.2 °F59 %29.97 in10.0 miSSE (150°)3.5 mphClear
12:50 AM21.2 °F12.2 °F68 %29.97 in10.0 miSW (230°)3.5 mphClear
1:10 AM23.0 °F12.2 °F63 %29.98 in10.0 miWest (260°)6.9 mphClear
1:30 AM23.0 °F12.2 °F63 %29.98 in10.0 miWest (270°)4.6 mphClear
1:50 AM21.2 °F12.2 °F68 %29.99 in10.0 miWest (260°)5.8 mphClear
2:10 AM21.2 °F14.0 °F74 %30.00 in10.0 miSSE (160°)3.5 mphClear
2:30 AM21.2 °F14.0 °F74 %30.00 in10.0 miWNW (290°)6.9 mphClear
2:50 AM21.2 °F12.2 °F68 %30.00 in10.0 miSouth (170°)8.1 mphClear
3:10 AM21.2 °F14.0 °F74 %30.01 in10.0 miSSE (150°)4.6 mphClear
3:30 AM21.2 °F14.0 °F74 %30.02 in10.0 miCalmClear
3:50 AM28.4 °F15.8 °F59 %30.03 in10.0 miNNW (330°)17.3 mphClear
4:10 AM37.4 °F12.2 °F36 %30.03 in10.0 miNNW (340°)18.4 mph24.2 mphClear
4:30 AM35.6 °F12.2 °F38 %30.06 in10.0 miNNW (340°)18.4 mphClear
4:50 AM35.6 °F12.2 °F38 %30.07 in10.0 miNNW (340°)18.4 mph24.2 mphClear
5:10 AM35.6 °F14.0 °F41 %30.08 in10.0 miNNW (340°)19.6 mphClear
5:30 AM35.6 °F15.8 °F44 %30.09 in10.0 miNNW (340°)20.7 mphClear
5:50 AM35.6 °F17.6 °F48 %30.11 in10.0 miNNW (340°)18.4 mphClear
6:10 AM35.6 °F17.6 °F48 %30.12 in10.0 miNNW (340°)18.4 mphClear
6:30 AM35.6 °F17.6 °F48 %30.15 in10.0 miNorth (350°)18.4 mphClear
6:50 AM37.4 °F17.6 °F45 %30.17 in10.0 miNorth (350°)17.3 mph26.5 mphClear
7:10 AM37.4 °F17.6 °F45 %30.18 in10.0 miNorth (360°)25.3 mph33.4 mphClear
7:30 AM35.6 °F17.6 °F48 %30.19 in10.0 miNorth (350°)23.0 mph29.9 mphClear
7:50 AM35.6 °F14.0 °F41 %30.21 in10.0 miNorth (360°)18.4 mph28.8 mphClear
8:10 AM35.6 °F14.0 °F41 %30.22 in10.0 miNorth (10°)10.4 mph23.0 mphClear
8:30 AM35.6 °F15.8 °F44 %30.22 in10.0 miNorth (360°)17.3 mph25.3 mphScattered Clouds
8:50 AM37.4 °F17.6 °F45 %30.23 in10.0 miNorth (350°)20.7 mph28.8 mphClear
9:10 AM37.4 °F17.6 °F45 %30.25 in10.0 miNorth (350°)17.3 mph25.3 mphClear
9:30 AM37.4 °F19.4 °F48 %30.26 in10.0 miNNW (340°)19.6 mph24.2 mphClear
9:50 AM37.4 °F19.4 °F48 %30.27 in10.0 miNNW (330°)11.5 mphClear
10:10 AM41.0 °F17.6 °F39 %30.27 in10.0 miNNW (340°)23.0 mph27.6 mphClear
10:30 AM42.8 °F15.8 °F34 %30.28 in10.0 miNorth (360°)27.6 mph33.4 mphClear
10:50 AM42.8 °F15.8 °F34 %30.28 in10.0 miNorth (350°)28.8 mph34.5 mphClear
11:10 AM44.6 °F15.8 °F31 %30.27 in10.0 miNorth (350°)26.5 mph38.0 mphClear
11:30 AM44.6 °F17.6 °F34 %30.27 in10.0 miNorth (350°)29.9 mph36.8 mphClear
11:50 AM44.6 °F17.6 °F34 %30.27 in10.0 miNorth (350°)28.8 mph36.8 mphClear
12:10 PM44.6 °F17.6 °F34 %30.27 in10.0 miNorth (350°)25.3 mph40.3 mphClear
12:30 PM44.6 °F14.0 °F29 %30.27 in10.0 miNorth (350°)21.9 mph36.8 mphClear
12:50 PM44.6 °F14.0 °F29 %30.27 in10.0 miNorth (360°)25.3 mph35.7 mphClear
1:10 PM44.6 °F14.0 °F29 %30.27 in10.0 miNNW (340°)25.3 mph38.0 mphClear
1:30 PM44.6 °F14.0 °F29 %30.28 in10.0 miNorth (360°)29.9 mph34.5 mphClear
1:50 PM44.6 °F15.8 °F31 %30.28 in10.0 miNorth (360°)24.2 mph35.7 mphClear
2:10 PM44.6 °F15.8 °F31 %30.27 in10.0 miNorth (360°)25.3 mph34.5 mphClear
2:30 PM44.6 °F17.6 °F34 %30.27 in10.0 miNorth (350°)26.5 mph36.8 mphClear
2:50 PM44.6 °F15.8 °F31 %30.27 in10.0 miNorth (350°)27.6 mph33.4 mphClear
3:10 PM42.8 °F15.8 °F34 %30.28 in10.0 miNorth (350°)26.5 mph32.2 mphClear
3:30 PM42.8 °F15.8 °F34 %30.29 in10.0 miNorth (350°)25.3 mph35.7 mphClear
3:50 PM42.8 °F15.8 °F34 %30.30 in10.0 miNorth (350°)24.2 mph29.9 mphClear
4:10 PM41.0 °F14.0 °F33 %30.30 in10.0 miNorth (360°)18.4 mph24.2 mphClear
4:30 PM39.2 °F14.0 °F36 %30.31 in10.0 miNorth (360°)17.3 mphClear
4:50 PM37.4 °F14.0 °F38 %30.31 in10.0 miNorth (360°)16.1 mphClear
5:10 PM35.6 °F14.0 °F41 %30.32 in10.0 miNorth (360°)10.4 mphClear
5:30 PM32.0 °F12.2 °F44 %30.33 in10.0 miNorth (350°)6.9 mphClear
5:50 PM28.4 °F12.2 °F51 %30.32 in10.0 miNorth (350°)9.2 mphClear
6:10 PM26.6 °F12.2 °F55 %30.33 in10.0 miWNW (290°)9.2 mphClear
6:30 PM26.6 °F12.2 °F55 %30.33 in10.0 miNNW (340°)8.1 mphClear
6:50 PM28.4 °F12.2 °F51 %30.34 in10.0 miNorth (350°)5.8 mphClear
7:10 PM28.4 °F12.2 °F51 %30.34 in10.0 miNorth (350°)8.1 mphClear
7:30 PM24.8 °F14.0 °F64 %30.35 in10.0 miNNW (340°)9.2 mphClear
7:50 PM23.0 °F14.0 °F68 %30.35 in10.0 miNNW (340°)8.1 mphClear
8:10 PM23.0 °F12.2 °F63 %30.36 in10.0 miNNW (330°)6.9 mphClear
8:30 PM23.0 °F12.2 °F63 %30.35 in10.0 miNNW (340°)5.8 mphClear
8:50 PM23.0 °F14.0 °F68 %30.36 in10.0 miNNW (340°)4.6 mphClear
9:10 PM23.0 °F14.0 °F68 %30.35 in10.0 miNorth (360°)4.6 mphClear
9:30 PM23.0 °F14.0 °F68 %30.35 in10.0 miNorth (350°)8.1 mphClear
9:50 PM23.0 °F14.0 °F68 %30.35 in10.0 miNNW (340°)5.8 mphClear
10:10 PM19.4 °F12.2 °F74 %30.35 in10.0 miCalmClear
10:30 PM19.4 °F12.2 °F74 %30.35 in10.0 miCalmClear
10:50 PM19.4 °F12.2 °F74 %30.35 in10.0 miWest (270°)5.8 mphClear
11:10 PM19.4 °F12.2 °F74 %30.35 in10.0 miWSW (250°)6.9 mphClear
11:30 PM19.4 °F12.2 °F74 %30.35 in10.0 miSSW (210°)3.5 mphClear
11:50 PM17.6 °F12.2 °F79 %30.34 in10.0 miSouth (180°)8.1 mphClear
Hourly data recorded from KSTK, located miles away from Sterling, Colorado







STORIES FROM OUR PARTNERS